sat.trackr.live / text

‹ back to catalog

STARLINK-3813

NORAD 52482 · 2022-049AH

PAYLOAD ACTIVE UNKNOWN

§ Identity

Operator
Country
US
Launch date
2022-05-06
Launch site
AFETR
Launch vehicle
Mass (kg)
RCS (m²)

Purposes: comms

External: N2YO · Heavens-Above · Gunter

§ Orbital elements

Epoch: 2026-09-19T12:21:57.619872Z

Period
93.90 min
Inclination
53.1599°
Eccentricity
0.0001259
Mean motion
15.33560587 rev/d
Perigee alt
464.3 km
Apogee alt
466.1 km
Semi-major
6,843.3 km
B*
6.0903e-5
RAAN
248.4327°
Arg perigee
85.0876°
Mean anomaly
275.0270°
Rev number
24,179

§ Raw data

STARLINK-38131 52482U 22049AH  26262.51525023  .00001631  00000+0  60903-4 0  99912 52482  53.1599 248.4327 0001259  85.0876 275.0270 15.33560587241795

JSON: /api/v1/satellites/52482 · /tle

For live sub-satellite position, see the globe view (requires WebGL).

§ Visibility from observer

Set your observer location to see the next 7 days of passes ≥ 10°. The values pass through the URL so the page stays shareable.

No JS? Fill the form by hand. The geolocation button needs JavaScript.